Погода Троицко-Печерск

Погода Троицко-Печерск : погода сейчас, прогноз погоды и архив. Всё, что Вы хотите узнать о погоде Троицко-Печерск!

Хотите узнать прогноз погоды Троицко-Печерск? Тогда Вам сюда: Погода Троицко-Печерск

Поиск расширенной информации на нашем сайте:

Другие новости

Новости СМИ2

Главная страница сайта

Новости сайта

03.07.2017

Напоминаем, что на нашем специализированном сайте Метеоцентр.Азия вы можете получить высокодетализированные автоматические прогнозы погоды по пунктам России, СНГ и мира в авиационном формате (включающие направление и скорость ветра, видимость, явления погоды, количество и форму облачности, нижнюю и верхнюю границу облачности).


Погода Троицко-Печерск - сегодня

Время (UTC), дата Ветер
(°,м/с) 
Видим.   Явления Облачность Т
(°С)
Тd
(°С)
f(%) Тe
(°С)
Pmin
(гПа)
dP
(гПа)
Po
(мм)
O2
(г/м3)
Тmin Tmax R s Состояние
почвы
03 11.08.18 330 (СЗ) 20000 м    10/10 870 м 
[Sc]
+9.2 +5.9 80 +9  1011.3  1.1  746  290  +8.9        влажная 
06 11.08.18 320 (СЗ) 20000 м    10/10 900 м 
[Sc]
+10.8 +5.3 69 +12  1011.3  0.1  746  288           
09 11.08.18 290 (З) 20000 м    10/10 750 м 
[Sc]
+10.2 +5 70 +10  1011.3  746  289           
12 11.08.18 290 (З) 20000 м    10/10 930 м 
[Sc]
+11 +5.9 71 +11  1010.9  -0.5  746  288           
18 11.08.18 250 (З) 20000 м    5/3 600 м средняя, верхняя 
[Sc|Ac lent|Ci fib]
+9 +7.1 88 +10  1009.3  -1.1  745  289           
21 11.08.18 260 (З) 20000 м    9/6 600 м средняя 
[Sc|Ac lent]
+10.1 +7.9 86 +10  1008.5  -0.7  744  288           
00 12.08.18 260 (З) 20000 м    10/9 1080 м средняя 
[Sc|Ac As]
+10.6 +8.2 85 +11  1007.4  -1.1  743  287           
03 12.08.18 190 (Ю) 20000 м  в посл. час дождь  10/0 средняя 
[Ac As]
+10.3 +8.7 90 +10  1006.3  -1.1  743  287  +8.6    0.0    влажная 
18 12.08.18 210 (ЮЗ) 20000 м    8/0 средняя, верхняя 
[Ac trans|Cs]
+17.3 +15.8 91 +28  1003.5  -0.5  741  277           
21 12.08.18 220 (ЮЗ) 20000 м    8/0 средняя, верхняя 
[Ac trans|Cs]
+15.6 +14.6 94 +25  1003.1  -0.5  740  279           
00 13.08.18 220 (ЮЗ) 4000 м  дымка  8/0 средняя, верхняя 
[Ac trans|Cs]
+14 +13 94 +21  1002.7  -0.5  740  281           
03 13.08.18 200 (Ю) 0500 м  туман  8/0 верхняя 
[Cs]
+15.6 +14.5 93 +24  1002.3  -0.3  740  279  +13.3        влажная 
12 13.08.18 020 (С) 49{11}  0300 м  {гроза, ливн. осадки}  3/3 50 м кучево-дожд., верхняя 
[Cb calv|Ci fib]
+14   997.1  -0.5  736             
15 13.08.18 190 (Ю) 3{12}  20000 м  {гроза, ливн. осадки}  6/3 600 м кучево-дожд., средняя, верхняя 
[Cb cap|Ac As|Ci fib]
+18.7 +14.8 78 +28  997  736  274    +24.9     
18 13.08.18 190 (Ю) 20000 м  {гроза, ливн. осадки}  8/0 средняя 
[Ac trans]
+16.3 +14.5 89 +25  997.6  0.4  736  277           
21 13.08.18 190 (Ю) 20000 м    3/0 средняя 
[Ac trans]
+13.1 +10.8 86 +17  997.8  736  281           
00 14.08.18 200 (Ю) 20000 м    3/0 средняя 
[Ac trans]
+10.8 +0.3 48 +11  998.8  0.9  737  286           
03 14.08.18 220 (ЮЗ) 20000 м    3/0 средняя 
[Ac trans]
+13.4 +9.7 78 +14  999.7  738  282  +10.6        влажная 
18 14.08.18 320 (СЗ) 20000 м    4/0 средняя 
[Ac trans]
+10.3 +7.9 85 +11  1007.9  1.6  744  287           
21 14.08.18 тихо ()   20000 м    6/0 средняя 
[Ac trans]
+8.8 +7.5 92 +9  1009  744  289           
00 15.08.18 тихо ()   20000 м    8/0 средняя 
[Ac As]
+7.7 +6.7 93 +8  1009.8  0.8  745  291           
03 15.08.18 190 (Ю) 20000 м    6/0 средняя 
[As op]
+11.9 +8.2 78 +12  1010.5  0.9  746  286  +6.8        влажная 
06 15.08.18 230 (ЮЗ) 20000 м    9/6 900 м кучево-дожд., средняя 
[Cb cap|Ac trans]
+16 +9.2 64 +17  1010.2  746  282           
09 15.08.18 190 (Ю) 20000 м  в посл. час ливневой дождь  8/4 600 м кучево-дожд., средняя 
[Cb cap|Ac trans]
+15 +11.2 78 +19  1010.5  0.3  746  283           
12 15.08.18 340 (С) 20000 м  {ливн. осадки}  5/5 600 м кучево-дожд. 
[Cb cap]
+18.8 +8.7 52 +20  1010.3  -0.1  746  280           
Время (UTC), дата Ветер
(°,м/с) 
Видим.   Явления Облачность Т
(°С)
Тd
(°С)
f(%) Тe
(°С)
Pmin
(гПа)
dP
(гПа)
Po
(мм)
O2
(г/м3)
Тmin Tmax R s Состояние
почвы

Для получения пояснительной информации подведите курсор к названию столбца.

ПОГОДА Троицко-Печерск - архив

Всё, что Вы хотите узнать о погоде Троицко-Печерск - удобно и подробно!

Выберите нужную дату (начиная с 1 января 2015* года) и нажмите кнопку "Найти".
Будут отображены архивные сводки погоды по пункту Троицко-Печерск, начиная с указанной даты.


Отображать данные в формате CSV (для использования в таблицах Excel)


Внимание! Наш архив погоды предназначен исключительно для личного некоммерческого использования в познавательных целях. Если Вам необходимы официальные справки о состоянии погоды (для производственных, юридических, коммерческих и т.п. целей), обращайтесь в органы Росгидромета.

*Примечание: данная дата относится к архиву по метеостанциям СССР (Россия, СНГ, Балтия).
Архив по метеостанциям Зарубежной Европы и Азии (кроме Китая) хранится 10 дней, по другим регионам земного шара (Китай, Африка, Америка, Австралия, Океания) - 1 день.

Троицко-Печерск - район местоположения метеостанции


Название, широта, долгота, высота метеостанции:
Троицко-Печерск 62.7°ш. 56.2°д. 139 м над ур. моря [Российская Федерация]

Дополнительная информация

В oтличие oт бoльшинства пoгoдных сайтoв мы публикуем пoдрoбную метеoинфoрмацию в детальнoм прoфессиoнальнoм фoрмате.

Характеристики температуры и влажнoсти вoздуха измеряются на высoте 2 м в тени вдали oт зданий и деревьев.
Скoрoсть ветра измеряется на высoте 10 м (на урoвне рoста челoвека скoрoсть ветра ниже в 1.5-2 раза). Если метеoстанция нахoдится в гoрoде или в лесу, тo скoрoсть ветра занижена на 2-4 м/с пo сравнению с oткрытым местoм. Скoрoсть ветра над акватoриями крупных рек и oзёр, а также на вершинах хoлмoв на 2-5 м/с выше, чем в oбычных услoвиях.
Атмoсфернoе давление в разных тoчках местнoсти мoжет значительнo oтличаться oт давления на метеoстанции, в зависимoсти oт услoвий рельефа (при пoдъёме на 10 м давление пoнижается примернo на 1 мм рт.ст.).